| time (UTC) | temp F | wind direction | speed knots | gust knots | rain 1hr in | rain 24hr in | rain mn in | humidity % | barometer mb |
| 20260906024512 | 78 | 52 | 0.0 | 0.9 | 0.00 | 0.00 | 0.00 | 95 | 1011.0 |
| 20260906023018 | 78 | 48 | 0.0 | 2.6 | 0.00 | 0.00 | 0.00 | 95 | 1010.9 |
| 20260906021512 | 78 | 76 | 0.0 | 0.0 | 0.00 | 0.00 | 0.00 | 95 | 1010.9 |
| 20260906020010 | 78 | 76 | 0.0 | 0.0 | 0.00 | 0.00 | 0.00 | 95 | 1010.7 |
| 20260906014512 | 78 | 76 | 0.0 | 0.0 | 0.00 | 0.00 | 0.00 | 95 | 1010.5 |
| 20260906013011 | 78 | 76 | 0.0 | 1.7 | 0.00 | 0.00 | 0.00 | 95 | 1010.2 |
| 20260906011513 | 78 | 63 | 0.0 | 1.7 | 0.00 | 0.00 | 0.00 | 95 | 1010.0 |
| 20260906010009 | 79 | 72 | 0.0 | 0.0 | 0.00 | 0.00 | 0.00 | 94 | 1010.1 |
| 20260906004508 | 79 | 72 | 0.0 | 0.0 | 0.00 | 0.00 | 0.00 | 93 | 1010.1 |
| 20260906003018 | 80 | 70 | 0.0 | 0.0 | 0.00 | 0.00 | 0.00 | 92 | 1009.9 |
| 20260906001508 | 81 | 70 | 0.0 | 0.0 | 0.00 | 0.00 | 0.00 | 91 | 1009.9 |
| 20260906000008 | 82 | 70 | 0.0 | 0.9 | 0.00 | 0.00 | 0.00 | 90 | 1010.1 |
| 20260905234509 | 81 | 70 | 0.0 | 0.9 | 0.00 | 0.00 | 0.00 | 91 | 1010.1 |
| 20260905233009 | 81 | 69 | 0.0 | 1.7 | 0.00 | 0.00 | 0.00 | 91 | 1009.9 |
| 20260905231506 | 81 | 67 | 0.0 | 1.7 | 0.00 | 0.00 | 0.00 | 91 | 1009.7 |
| 20260905230006 | 81 | 56 | 0.0 | 2.6 | 0.00 | 0.00 | 0.00 | 91 | 1009.8 |
| 20260905224502 | 80 | 65 | 1.7 | 3.5 | 0.00 | 0.00 | 0.00 | 91 | 1010.1 |
| 20260905223003 | 81 | 62 | 4.3 | 7.0 | 0.00 | 0.00 | 0.00 | 90 | 1010.5 |
| 20260905221602 | 82 | 98 | 0.0 | 1.7 | 0.00 | 0.00 | 0.00 | 90 | 1010.4 |
| 20260905220104 | 82 | 82 | 0.0 | 1.7 | 0.00 | 0.00 | 0.00 | 88 | 1010.4 |
| 20260905214559 | 83 | 79 | 0.0 | 1.7 | 0.00 | 0.00 | 0.00 | 85 | 1010.3 |
| 20260905213107 | 82 | 277 | 0.0 | 2.6 | 0.00 | 0.00 | 0.00 | 85 | 1010.4 |
| 20260905211558 | 82 | 236 | 2.6 | 5.2 | 0.00 | 0.00 | 0.00 | 83 | 1010.5 |
| 20260905210109 | 83 | 244 | 1.7 | 5.2 | 0.00 | 0.00 | 0.00 | 80 | 1010.5 |
| 20260905204556 | 84 | 234 | 5.2 | 7.8 | 0.00 | 0.00 | 0.00 | 79 | 1010.2 |
| 20260905203058 | 86 | 252 | 6.1 | 11.3 | 0.00 | 0.00 | 0.00 | 78 | 1010.4 |
| 20260905201603 | 90 | 14 | 0.9 | 7.0 | 0.00 | 0.00 | 0.00 | 75 | 1010.3 |
| 20260905200111 | 90 | 275 | 0.9 | 8.7 | 0.00 | 0.00 | 0.00 | 77 | 1010.3 |
| 20260905194549 | 90 | 150 | 0.0 | 2.6 | 0.00 | 0.00 | 0.00 | 74 | 1010.6 |
| 20260905193047 | 89 | 172 | 1.7 | 4.3 | 0.00 | 0.00 | 0.00 | 73 | 1011.0 |
| 20260905191546 | 89 | 141 | 0.0 | 4.3 | 0.00 | 0.00 | 0.00 | 77 | 1011.1 |
| 20260905190044 | 90 | 158 | 3.5 | 6.1 | 0.00 | 0.00 | 0.00 | 77 | 1011.4 |
| 20260905184541 | 90 | 349 | 2.6 | 6.1 | 0.00 | 0.00 | 0.00 | 74 | 1011.7 |
| 20260905183038 | 89 | 176 | 1.7 | 5.2 | 0.00 | 0.00 | 0.00 | 78 | 1011.7 |
| 20260905181537 | 88 | 137 | 0.9 | 4.3 | 0.00 | 0.00 | 0.00 | 77 | 1011.8 |
| 20260905180036 | 88 | 191 | 1.7 | 4.3 | 0.00 | 0.00 | 0.00 | 81 | 1012.2 |
| 20260905174532 | 87 | 155 | 1.7 | 3.5 | 0.00 | 0.00 | 0.00 | 82 | 1012.3 |
| 20260905173027 | 86 | 150 | 1.7 | 5.2 | 0.00 | 0.00 | 0.00 | 83 | 1012.6 |
| 20260905171540 | 83 | 169 | 1.7 | 5.2 | 0.00 | 0.00 | 0.00 | 87 | 1012.9 |
| 20260905170031 | 81 | 178 | 3.5 | 5.2 | 0.00 | 0.00 | 0.00 | 90 | 1012.9 |
| 20260905164526 | 80 | 134 | 1.7 | 5.2 | 0.00 | 0.00 | 0.00 | 91 | 1013.0 |
| 20260905163026 | 83 | 139 | 2.6 | 6.1 | 0.00 | 0.00 | 0.00 | 86 | 1013.1 |
| 20260905161535 | 84 | 148 | 0.9 | 4.3 | 0.00 | 0.00 | 0.00 | 83 | 1013.1 |
| 20260905160036 | 85 | 167 | 1.7 | 5.2 | 0.00 | 0.00 | 0.00 | 84 | 1013.2 |
| 20260905154544 | 86 | 165 | 0.0 | 0.0 | 0.00 | 0.00 | 0.00 | 83 | 1013.1 |
| 20260905153022 | 84 | 131 | 0.0 | 0.9 | 0.00 | 0.00 | 0.00 | 85 | 1013.1 |
| 20260905151517 | 82 | 170 | 0.0 | 1.7 | 0.00 | 0.00 | 0.00 | 88 | 1013.2 |
| 20260905150015 | 83 | 167 | 0.0 | 2.6 | 0.00 | 0.00 | 0.00 | 89 | 1013.2 |
| 20260905144512 | 82 | 233 | 0.0 | 3.5 | 0.00 | 0.00 | 0.00 | 92 | 1013.1 |
| 20260905143010 | 81 | 221 | 0.9 | 3.5 | 0.00 | 0.00 | 0.00 | 94 | 1013.1 |
| 20260905141507 | 81 | 171 | 0.9 | 2.6 | 0.00 | 0.00 | 0.00 | 98 | 1013.1 |
| 20260905140105 | 80 | 185 | 0.0 | 1.7 | 0.00 | 0.00 | 0.00 | 99 | 1013.0 |
| 20260905134507 | 79 | 193 | 0.0 | 0.9 | 0.00 | 0.00 | 0.00 | 99 | 1013.0 |
| 20260905133002 | 77 | 210 | 0.0 | 2.6 | 0.00 | 0.00 | 0.00 | 99 | 1013.0 |
| 20260905131603 | 77 | 256 | 0.9 | 2.6 | 0.00 | 0.00 | 0.00 | 99 | 1013.0 |
| 20260905130056 | 76 | 285 | 0.9 | 2.6 | 0.00 | 0.00 | 0.00 | 99 | 1012.8 |
| 20260905124553 | 75 | 271 | 0.9 | 3.5 | 0.00 | 0.00 | 0.00 | 99 | 1012.7 |
| 20260905123052 | 75 | 238 | 0.9 | 2.6 | 0.00 | 0.00 | 0.00 | 99 | 1012.6 |
| 20260905121548 | 74 | 181 | 0.9 | 1.7 | 0.00 | 0.00 | 0.00 | 99 | 1012.4 |
| 20260905120048 | 74 | 180 | 0.0 | 0.9 | 0.00 | 0.00 | 0.00 | 99 | 1012.3 |
| 20260905114559 | 74 | 180 | 0.0 | 1.7 | 0.00 | 0.00 | 0.00 | 99 | 1012.3 |
| 20260905113046 | 73 | 193 | 0.0 | 0.0 | 0.00 | 0.00 | 0.00 | 99 | 1012.3 |
| 20260905111544 | 73 | 193 | 0.0 | 0.0 | 0.00 | 0.00 | 0.00 | 99 | 1012.1 |
| 20260905110045 | 73 | 193 | 0.0 | 0.0 | 0.00 | 0.00 | 0.00 | 99 | 1012.1 |
| 20260905104548 | 73 | 193 | 0.0 | 0.0 | 0.00 | 0.00 | 0.00 | 99 | 1012.0 |
| 20260905103046 | 73 | 193 | 0.0 | 0.0 | 0.00 | 0.00 | 0.00 | 99 | 1012.1 |
| 20260905101541 | 74 | 193 | 0.0 | 0.0 | 0.00 | 0.00 | 0.00 | 99 | 1012.1 |
| 20260905100041 | 74 | 193 | 0.0 | 0.0 | 0.00 | 0.00 | 0.00 | 99 | 1012.1 |
| 20260905094557 | 73 | 193 | 0.0 | 0.0 | 0.00 | 0.00 | 0.00 | 99 | 1012.0 |
| 20260905093043 | 73 | 193 | 0.0 | 0.0 | 0.00 | 0.00 | 0.00 | 99 | 1011.9 |
| 20260905091537 | 74 | 193 | 0.0 | 0.0 | 0.00 | 0.00 | 0.00 | 98 | 1011.7 |
| 20260905090028 | 74 | 193 | 0.0 | 0.0 | 0.00 | 0.00 | 0.00 | 98 | 1011.8 |
| 20260905084535 | 74 | 193 | 0.0 | 0.0 | 0.00 | 0.00 | 0.00 | 98 | 1011.7 |
| 20260905083026 | 74 | 194 | 0.0 | 0.0 | 0.00 | 0.00 | 0.00 | 98 | 1011.7 |
| 20260905081525 | 74 | 194 | 0.0 | 0.0 | 0.00 | 0.00 | 0.00 | 98 | 1011.8 |
| 20260905080037 | 75 | 194 | 0.0 | 0.0 | 0.00 | 0.00 | 0.00 | 98 | 1011.8 |
| 20260905074501 | 74 | 194 | 0.0 | 0.0 | 0.00 | 0.00 | 0.00 | 98 | 1011.8 |
| 20260905073102 | 75 | 194 | 0.0 | 0.0 | 0.00 | 0.00 | 0.00 | 98 | 1011.6 |
| 20260905071604 | 75 | 194 | 0.0 | 0.0 | 0.00 | 0.00 | 0.00 | 98 | 1011.6 |
| 20260905070100 | 75 | 194 | 0.0 | 0.0 | 0.00 | 0.00 | 0.00 | 98 | 1011.8 |
| 20260905064602 | 75 | 194 | 0.0 | 0.0 | 0.00 | 0.00 | 0.00 | 98 | 1011.8 |
| 20260905063112 | 75 | 194 | 0.0 | 0.0 | 0.00 | 0.00 | 0.00 | 98 | 1011.8 |
| 20260905061611 | 74 | 194 | 0.0 | 0.0 | 0.00 | 0.00 | 0.00 | 98 | 1011.7 |
| 20260905060056 | 74 | 194 | 0.0 | 0.0 | 0.00 | 0.00 | 0.00 | 98 | 1011.7 |
| 20260905054554 | 75 | 194 | 0.0 | 0.0 | 0.00 | 0.00 | 0.00 | 98 | 1011.8 |
| 20260905053028 | 75 | 194 | 0.0 | 0.0 | 0.00 | 0.00 | 0.00 | 98 | 1011.8 |
| 20260905051538 | 75 | 194 | 0.0 | 0.0 | 0.00 | 0.00 | 0.00 | 98 | 1012.0 |
| 20260905050025 | 75 | 194 | 0.0 | 0.0 | 0.00 | 0.00 | 0.00 | 98 | 1012.1 |
| 20260905044526 | 75 | 194 | 0.0 | 0.0 | 0.00 | 0.00 | 0.00 | 98 | 1012.2 |
| 20260905043039 | 75 | 194 | 0.0 | 0.0 | 0.00 | 0.00 | 0.00 | 98 | 1012.1 |
| 20260905041523 | 75 | 194 | 0.0 | 0.0 | 0.00 | 0.00 | 0.00 | 98 | 1012.2 |
| 20260905040029 | 75 | 194 | 0.0 | 0.0 | 0.00 | 0.00 | 0.00 | 98 | 1012.5 |
| 20260905034528 | 75 | 194 | 0.0 | 0.0 | 0.00 | 0.00 | 0.00 | 98 | 1012.5 |
| 20260905033021 | 75 | 195 | 0.0 | 1.7 | 0.00 | 0.00 | 0.00 | 97 | 1012.7 |
| 20260905031521 | 76 | 272 | 0.0 | 0.9 | 0.00 | 0.00 | 0.00 | 98 | 1012.7 |
| 20260905030021 | 75 | 273 | 0.0 | 1.7 | 0.00 | 0.00 | 0.00 | 98 | 1012.8 |